Regional Weather Roundup
Issued by NWS

Home | Current Version | Previous Version | Graphics & Text | Print | Product List | Glossary Off
Versions: 1 2 3 4 5 6 7 8 9 10 11 12 13 14 15 16 17 18 19 20 21 22 23 24 25 26 27 28 29 30 31 32 33 34 35 36 37 38 39 40 41 42 43 44 45 46 47 48 49 50

000
ASUS43 KTOP 211859
RWRKS

WEATHER ROUNDUP FOR KANSAS
NATIONAL WEATHER SERVICE GOODLAND KS
100 PM CST WED FEB 21 2018

NOTE:  "FAIR" INDICATES FEW OR NO CLOUDS BELOW 12,000 FEET WITH NO
SIGNIFICANT WEATHER AND/OR OBSTRUCTIONS TO VISIBILITY.

KSZ001>006-013>018-027>032-041>047-212000-
NORTHWEST KANSAS

CITY           SKY/WX    TMP DP  RH WIND       PRES   REMARKS
GOODLAND       FAIR      27   3  35 S13G21    30.34F WCI  16
HAYS           FAIR      26   2  35 NE7       30.50F
HILL CITY      FAIR      24   0  35 E7        30.50F
RUSSELL        PTSUNNY   26   1  34 NE10      30.49F WCI  16
$$

KSZ061>065-074>080-084>089-212000-
SOUTHWEST KANSAS

CITY           SKY/WX    TMP DP  RH WIND       PRES   REMARKS
DODGE CITY     CLOUDY    21   0  39 NE15      30.44F WCI   8
GARDEN CITY    CLOUDY    21  -1  38 NE9       30.41F
GREAT BEND     CLOUDY    22   4  46 N13       30.49F WCI  10
LIBERAL        CLOUDY    22   3  44 N14       30.41F WCI   9
$$

KSZ066>073-081>083-090>101-212000-
SOUTHEAST KANSAS

CITY           SKY/WX    TMP DP  RH WIND       PRES   REMARKS
CHANUTE        PTSUNNY   27  22  81 NE12      30.47F WCI  17
COFFEYVILLE    CLOUDY    27  23  85 N15       30.46F WCI  15
HUTCHINSON     CLOUDY    21  11  65 N13       30.49F WCI   9
MEDICINE LODGE   N/A     24   8  50 N13G24    30.45F WCI  12
NEWTON         CLOUDY    21  16  81 N17       30.46F WCI   7
PARSONS        CLOUDY    26  22  84 N10G17    30.47F WCI  16
WICHITA INTL   CLOUDY    26  16  65 N13G24    30.46F WCI  15
WICHITA JABRA  CLOUDY    25  18  74 NE17      30.45F WCI  12
WICHITA MCCONL CLOUDY    25  17  71 NE17      30.45F WCI  12
WINFIELD       PTSUNNY   26  22  84 N13       30.46S WCI  15
$$

KSZ007>012-019>026-033>040-048>060-102>105-212000-
NORTHEAST KANSAS

CITY           SKY/WX    TMP DP  RH WIND       PRES   REMARKS
CONCORDIA      FAIR      25   5  42 E8        30.55F
EMPORIA        CLOUDY    23  16  74 N16       30.49F WCI  10
LAWRENCE       FAIR      26  20  77 N12       30.55F WCI  16
MANHATTAN      FAIR      26  12  55 NE13      30.55F WCI  15
OLATHE IND     FAIR      24  20  84 N10       30.53F WCI  14
OLATHE EXE     FAIR      24  21  88 N14       30.51F WCI  12
SALINA         CLOUDY    26   9  48 N10       30.53F WCI  16
TOPEKA BILLARD FAIR      25  19  78 N10       30.55F WCI  15
TOPEKA FORBES  FAIR      25  17  72 NE13      30.52F WCI  14
$$




USA.gov is the U.S. government's official web portal to all federal, state and local government web resources and services.